Weather History for Kimball, NE

Change the Weather History Date:

Friday, January 31, 2014

  Actual Average (KSNY) Record (KSNY)
Temperature  
Mean Temperature 18 °F 30 °F  
Max Temperature 21 °F 42 °F 65 °F (1954)
Min Temperature 14 °F 17 °F -23 °F (1951)
Degree Days  
Heating Degree Days 48 35  
Month to date heating degree days 1113  
Since 1 July heating degree days 3657  
Cooling Degree Days 0 0  
Month to date cooling degree days 0  
Year to date cooling degree days 0  
Moisture  
Dew Point 14 °F    
Average Humidity 85    
Maximum Humidity 90    
Minimum Humidity 79    
Precipitation  
Precipitation 0.05 in 0.01 in 0.14 in (2014)
Month to date precipitation 0.20  
Year to date precipitation 0.20  
Sea Level Pressure  
Sea Level Pressure 29.74 in    
Wind  
Wind Speed 9 mph (SSW)    
Max Wind Speed 17 mph    
Max Gust Speed -    
Visibility 7 miles    
Events Snow    
T = Trace of Precipitation, MM = Missing Value Source: NWS Daily Summary

Daily Weather History Graph

Daily Weather History Graph

Search for Another Location

Airport:

Trip Planner

Search our weather history database for the weather conditions in past years. The results will help you decide how hot, cold, wet, or windy it might be!

Date:

Astronomy

Jan. 31, 2014 Rise Set
Actual Time 8:06 AM CST 6:10 PM CST
Civil Twilight 7:37 AM CST 6:39 PM CST
Nautical Twilight 7:04 AM CST 7:12 PM CST
Astronomical Twilight 6:31 AM CST 7:44 PM CST
Moon 8:17 AM CST (1/31) 7:38 PM CST (1/31)
Length of Visible Light 11h 02m
Length of Day
10h 03m
New Moon, 1% of the Moon is Illuminated
Jan 31
New Moon
Feb 6
First Quarter
Feb 14
Full
Feb 22
Last Quarter
Mar 1
New

Hourly Weather History & Observations

Time (CST) Temp. Windchill Dew Point Humidity Pressure Visibility Wind Dir Wind Speed Gust Speed Precip Events Conditions
12:15 AM 18.9 °F 6.5 °F 15.6 °F 87% 29.77 in 1.8 mi ENE 11.5 mph - N/A Snow Light Snow
12:35 AM 18.5 °F 7.5 °F 15.6 °F 89% 29.78 in 1.8 mi ENE 9.2 mph - N/A Snow Light Snow
12:55 AM 18.5 °F 10.4 °F 15.8 °F 89% 29.79 in 2.0 mi ENE 5.8 mph - 0.01 in Snow Light Snow
1:15 AM 18.5 °F 7.5 °F 15.6 °F 89% 29.77 in 2.5 mi ENE 9.2 mph - N/A Snow Light Snow
1:35 AM 18.1 °F 10.0 °F 14.9 °F 87% 29.77 in 1.2 mi ENE 5.8 mph - N/A Snow Light Snow
1:55 AM 17.6 °F 9.3 °F 14.5 °F 88% 29.77 in 1.0 mi ENE 5.8 mph - 0.01 in Snow Snow
2:15 AM 17.6 °F 7.3 °F 14.7 °F 88% 29.77 in 1.0 mi ENE 8.1 mph - N/A Snow Snow
2:35 AM 17.6 °F 9.3 °F 14.5 °F 88% 29.77 in 1.0 mi ENE 5.8 mph - N/A Snow Snow
2:55 AM 17.2 °F 7.8 °F 14.0 °F 87% 29.78 in 1.0 mi East 6.9 mph - N/A Snow Snow
3:15 AM 17.2 °F 10.2 °F 14.0 °F 87% 29.79 in 1.0 mi East 4.6 mph - 0.01 in Snow Snow
3:35 AM 17.2 °F 8.9 °F 14.0 °F 87% 29.79 in 1.0 mi ESE 5.8 mph - 0.01 in Snow Snow
3:55 AM 17.1 °F 8.7 °F 14.0 °F 88% 29.80 in 0.8 mi SE 5.8 mph - 0.01 in Snow Snow
4:15 AM 17.1 °F 8.7 °F 14.0 °F 88% 29.80 in 1.0 mi SE 5.8 mph - 0.01 in Snow Snow
4:35 AM 16.7 °F 7.2 °F 14.0 °F 89% 29.80 in 0.8 mi SE 6.9 mph - 0.01 in Snow Snow
4:55 AM 16.7 °F 7.2 °F 13.8 °F 88% 29.79 in 1.0 mi SE 6.9 mph - 0.01 in Snow Snow
5:15 AM 16.7 °F 8.3 °F 13.8 °F 88% 29.79 in 1.5 mi SE 5.8 mph - N/A Snow Light Snow
5:35 AM 16.7 °F 11.2 °F 13.8 °F 88% 29.79 in 1.2 mi ESE 3.5 mph - N/A Snow Snow
5:55 AM 16.7 °F 11.2 °F 13.8 °F 88% 29.80 in 1.5 mi SE 3.5 mph - N/A Snow Light Snow
6:15 AM 16.7 °F - 14.0 °F 89% 29.81 in 1.8 mi Calm Calm - 0.01 in Snow Light Snow
6:35 AM 16.7 °F 8.3 °F 13.6 °F 88% 29.81 in 2.5 mi SE 5.8 mph - 0.01 in Snow Light Snow
6:55 AM 16.7 °F 9.6 °F 13.8 °F 88% 29.80 in 5.0 mi SSE 4.6 mph - 0.01 in Snow Light Snow
7:15 AM 16.7 °F 9.6 °F 13.6 °F 88% 29.80 in 7.0 mi South 4.6 mph - N/A Snow Light Snow
7:35 AM 16.7 °F 6.2 °F 13.8 °F 88% 29.81 in 10.0 mi South 8.1 mph - N/A Snow Light Snow
7:55 AM 16.7 °F 5.3 °F 14.0 °F 89% 29.81 in 10.0 mi South 9.2 mph - N/A   Overcast
8:15 AM 16.7 °F 3.8 °F 14.0 °F 89% 29.81 in 10.0 mi South 11.5 mph - N/A   Overcast
8:35 AM 16.5 °F 5.1 °F 14.0 °F 90% 29.81 in 10.0 mi South 9.2 mph - N/A   Overcast
8:55 AM 16.5 °F 3.6 °F 14.0 °F 90% 29.80 in 10.0 mi South 11.5 mph - N/A   Overcast
9:15 AM 16.3 °F 2.7 °F 14.0 °F 90% 29.80 in 10.0 mi South 12.7 mph - N/A   Overcast
9:35 AM 16.7 °F 4.5 °F 14.0 °F 89% 29.80 in 10.0 mi South 10.4 mph - N/A   Overcast
9:55 AM 16.3 °F 5.7 °F 13.5 °F 88% 29.80 in 10.0 mi South 8.1 mph - N/A   Overcast
10:15 AM 16.2 °F 3.9 °F 12.7 °F 86% 29.79 in 10.0 mi South 10.4 mph - N/A   Overcast
10:35 AM 16.7 °F 2.6 °F 12.9 °F 85% 29.79 in 10.0 mi South 13.8 mph - N/A   Mostly Cloudy
10:55 AM 18.3 °F 4.6 °F 13.8 °F 83% 29.79 in 10.0 mi SSW 13.8 mph - N/A   Scattered Clouds
11:15 AM 18.5 °F 5.5 °F 13.8 °F 82% 29.79 in 10.0 mi SSW 12.7 mph - N/A   Scattered Clouds
11:35 AM 19.2 °F 4.3 °F 14.0 °F 80% 29.78 in 10.0 mi SSW 17.3 mph - N/A   Mostly Cloudy
11:55 AM 19.8 °F 5.4 °F 14.5 °F 80% 29.77 in 10.0 mi SSW 16.1 mph - N/A   Overcast
12:15 PM 20.1 °F 5.9 °F 14.5 °F 79% 29.76 in 10.0 mi South 16.1 mph - N/A   Overcast
12:35 PM 20.1 °F 6.4 °F 14.9 °F 80% 29.75 in 10.0 mi SSW 15.0 mph - N/A   Overcast
12:55 PM 20.1 °F 6.9 °F 14.9 °F 80% 29.73 in 10.0 mi SSW 13.8 mph - N/A   Overcast
1:15 PM 20.3 °F 7.7 °F 14.9 °F 80% 29.71 in 10.0 mi SW 12.7 mph - N/A   Overcast
1:35 PM 20.1 °F 8.1 °F 15.1 °F 81% 29.70 in 10.0 mi SW 11.5 mph - N/A   Overcast
1:55 PM 20.5 °F 7.4 °F 15.6 °F 81% 29.69 in 7.0 mi SW 13.8 mph - N/A   Overcast
2:15 PM 20.7 °F 8.8 °F 15.8 °F 81% 29.69 in 7.0 mi SW 11.5 mph - N/A   Overcast
2:35 PM 21.0 °F 9.3 °F 16.0 °F 81% 29.69 in 10.0 mi SW 11.5 mph - N/A   Overcast
2:55 PM 21.4 °F 9.1 °F 16.7 °F 82% 29.69 in 10.0 mi SW 12.7 mph - N/A   Overcast
3:15 PM 21.9 °F 8.7 °F 16.5 °F 80% 29.68 in 10.0 mi SW 15.0 mph - N/A   Overcast
3:35 PM 21.6 °F 8.2 °F 16.3 °F 80% 29.66 in 10.0 mi SW 15.0 mph - N/A   Overcast
3:55 PM 20.7 °F 8.2 °F 15.6 °F 81% 29.66 in 10.0 mi SSW 12.7 mph - N/A   Mostly Cloudy
4:15 PM 20.3 °F 9.0 °F 15.6 °F 82% 29.66 in 10.0 mi SW 10.4 mph - N/A   Clear
4:35 PM 19.2 °F 6.4 °F 14.7 °F 83% 29.66 in 10.0 mi SW 12.7 mph - N/A   Clear
4:55 PM 18.5 °F 9.3 °F 14.0 °F 83% 29.66 in 10.0 mi SW 6.9 mph - N/A   Clear
5:15 PM 17.6 °F 8.2 °F 13.6 °F 84% 29.67 in 10.0 mi SW 6.9 mph - N/A   Clear
5:35 PM 18.1 °F 8.9 °F 14.0 °F 84% 29.67 in 10.0 mi WSW 6.9 mph - N/A   Scattered Clouds
5:55 PM 17.6 °F 5.7 °F 13.8 °F 85% 29.66 in 10.0 mi WSW 10.4 mph - N/A   Mostly Cloudy
6:15 PM 18.3 °F 5.2 °F 14.5 °F 85% 29.67 in 10.0 mi WSW 12.7 mph - N/A   Overcast
6:35 PM 18.5 °F 5.5 °F 14.7 °F 85% 29.67 in 10.0 mi WSW 12.7 mph - N/A   Overcast
6:55 PM 18.5 °F 6.1 °F 14.5 °F 85% 29.68 in 10.0 mi West 11.5 mph - N/A   Overcast
7:15 PM 18.9 °F 7.2 °F 14.7 °F 84% 29.68 in 10.0 mi WSW 10.4 mph - N/A   Overcast
7:35 PM 18.9 °F 7.2 °F 14.2 °F 82% 29.69 in 10.0 mi West 10.4 mph - N/A   Overcast
7:55 PM 17.6 °F 7.3 °F 13.1 °F 83% 29.69 in 10.0 mi WSW 8.1 mph - N/A   Overcast
8:15 PM 16.7 °F 6.2 °F 12.4 °F 83% 29.69 in 10.0 mi West 8.1 mph - N/A   Overcast
8:35 PM 15.8 °F 2.7 °F 11.3 °F 82% 29.69 in 10.0 mi West 11.5 mph - N/A   Mostly Cloudy
8:55 PM 14.0 °F 0.5 °F 9.5 °F 82% 29.69 in 10.0 mi West 11.5 mph - N/A   Scattered Clouds
9:15 PM 14.0 °F 1.2 °F 10.4 °F 86% 29.69 in 10.0 mi WNW 10.4 mph - N/A   Scattered Clouds
9:35 PM 15.6 °F 4.0 °F 11.7 °F 84% 29.70 in 10.0 mi WNW 9.2 mph - N/A   Overcast
9:55 PM 16.7 °F 5.3 °F 12.4 °F 83% 29.71 in 10.0 mi West 9.2 mph - N/A   Overcast
10:15 PM 18.3 °F 5.9 °F 13.8 °F 83% 29.71 in 10.0 mi WNW 11.5 mph - N/A   Overcast
10:35 PM 16.7 °F 3.8 °F 12.2 °F 82% 29.71 in 10.0 mi WNW 11.5 mph - N/A   Overcast
10:55 PM 16.0 °F 4.4 °F 12.0 °F 84% 29.72 in 10.0 mi NW 9.2 mph - N/A   Overcast
11:15 PM 16.3 °F 4.1 °F 12.6 °F 85% 29.72 in 10.0 mi WNW 10.4 mph - N/A   Mostly Cloudy
11:35 PM 15.8 °F 4.2 °F 12.2 °F 86% 29.72 in 10.0 mi NW 9.2 mph - N/A   Overcast
11:55 PM 17.1 °F 6.6 °F 13.1 °F 84% 29.72 in 10.0 mi NW 8.1 mph - N/A   Overcast